Regional Weather Roundup
Issued by NWS

Home | Current Version | Previous Version | Text Only | Print | Product List | Glossary On
Versions: 1 2 3 4 5 6 7 8 9 10 11 12 13 14 15 16 17 18 19 20 21 22 23 24 25 26 27 28 29 30 31 32 33 34 35 36 37 38 39 40 41 42 43 44 45 46 47 48 49 50
000
ASUS45 KPSR 191100
RWRAZ

PRELIMINARY ARIZONA REGIONAL HOURLY WEATHER ROUNDUP
NATIONAL WEATHER SERVICE PHOENIX AZ
400 AM MST FRI SEP 19 2014

NOTE: FAIR INDICATES FEW OR NO CLOUDS BELOW 12,000 FEET WITH NO
SIGNIFICANT WEATHER AND/OR OBSTRUCTIONS TO VISIBILITY.

AZZ001>003-036-191200-
NORTHWEST ARIZONA

CITY           SKY/WX    TMP DP  RH WIND       PRES   REMARKS
KINGMAN        CLEAR     70  48  45 SE8       29.90R
$$

AZZ004>008-015-016-018-191200-
NORTH CENTRAL ARIZONA

CITY           SKY/WX    TMP DP  RH WIND       PRES   REMARKS
GRAND CANYON   MOCLDY    51  48  89 CALM      30.14S
PRESCOTT       PTCLDY    66  57  72 SE5       30.03S
FLAGSTAFF      PTCLDY    55  53  93 SW3       30.16S
PAYSON         DRIZZLE   66  61  82 CALM      30.06R
PAGE           PTCLDY    73  52  47 CALM      29.94R
$$

AZZ009>014-017-191200-
NORTHEAST ARIZONA

CITY           SKY/WX    TMP DP  RH WIND       PRES   REMARKS
WINSLOW        NOT AVBL
SAINT JOHNS    CLEAR     57  55  93 CALM      30.06S
WINDOW ROCK    CLEAR     48  42  80 CALM      30.14S
SHOW LOW       CLEAR     55  54  94 S6        30.13S
$$

AZZ023-191200-
GREATER PHOENIX AREA

CITY           SKY/WX    TMP DP  RH WIND       PRES   REMARKS
PHOENIX        PTCLDY    84  67  56 E5        29.76S
DEER VALLEY    MOCLDY    82  67  60 CALM      29.78S
SCOTTSDALE     CLEAR     82  67  60 CALM      29.80S
$$

AZZ027-028-191200-
SOUTHWEST MARICOPA COUNTY AND PINAL COUNTY

CITY           SKY/WX    TMP DP  RH WIND       PRES   REMARKS
CASA GRANDE    MOCLDY    81  72  74 CALM      29.80S
$$

AZZ503-504-507>509-191200-
SOUTHEAST ARIZONA

CITY           SKY/WX    TMP DP  RH WIND       PRES   REMARKS
TUCSON         MOCLDY    74  68  81 SE6       29.89F
DAVIS-MONTHAN  PTCLDY    73  68  85 S6        29.88S
NOGALES        CLOUDY    67  65  93 S6        29.96S
SIERRA VISTA   PTCLDY    64  61  88 CALM      30.01S
SAFFORD        MOCLDY    69  66  90 E3        29.91S
$$

AZZ020-021-025-026-031-191200-
SOUTHWEST ARIZONA

CITY           SKY/WX    TMP DP  RH WIND       PRES   REMARKS
YUMA           CLEAR     82  54  37 CALM      29.72S
$$

CAZ031-033-041-043-047-048-061-191200-
SOUTHERN CALIFORNIA

CITY           SKY/WX    TMP DP  RH WIND       PRES   REMARKS
DOWNTOWN L.A.  CLOUDY    67  62  84 W3        29.87S
L.A. AIRPORT   MOCLDY    67  62  84 W6        29.88S
SAN DIEGO      CLOUDY    73  65  75 N5        29.88S
BURBANK        CLOUDY    67  60  78 SE6       29.88R
ONTARIO        CLOUDY    69  60  73 W6        29.89R
RIVERSIDE      CLOUDY    69  61  75 CALM      29.88S
PALM SPRINGS   CLEAR     79  58  48 VRB5      29.73S
EL CENTRO NAS  CLEAR     82  57  42 W23       29.70S
IMPERIAL       CLEAR     80  58  46 W16       29.69S
BLYTHE         CLEAR     77  61  57 S5        29.71S
$$

NVZ020-UTZ003-191200-
SOUTHERN NEVADA-UTAH

CITY           SKY/WX    TMP DP  RH WIND       PRES   REMARKS
LAS VEGAS      NOT AVBL
SALT LAKE CITY CLOUDY    64  59  83 SW5       29.97S
$$

NMZ009-TXZ055-191200-
NEW MEXICO-WEST TEXAS

CITY           SKY/WX    TMP DP  RH WIND       PRES   REMARKS
ALBUQUERQUE    CLOUDY    66  58  75 N7        30.07S
EL PASO        MOCLDY    67  65  93 N6        29.95R
$$


........................KEY........................
SKY/WX - SKY CONDITION/WEATHER
TMP    - TEMPERATURE IN FAHRENHEIT
DP     - DEW POINT IN FAHRENHEIT
RH     - RELATIVE HUMIDITY IN PERCENT
WIND   - DIRECTION AND SPEED IN MILES PER HOUR (MPH)
VRB    - VARIABLE WIND DIRECTION
PRES   - MEAN SEA LEVEL PRESSURE IN INCHES OF MERCURY
         F - FALLING PRESSURE   R - RISING PRESSURE
         S - STEADY PRESSURE
VSB    - VISIBILITY IN MILES
HX     - HEAT INDEX IN FAHRENHEIT
WCI    - WIND CHILL INDEX IN FAHRENHEIT
TC     - TEMPERATURE IN CELSIUS WHICH IS ALSO KNOWN AS
         TEMPERATURE IN CENTIGRADE
AFB    - AIR FORCE BASE
         LUKE AFB IS LUKE AIR FORCE BASE
         DAVIS-MONTHAN IS DAVIS-MONTHAN AIR FORCE BASE
NAS    - NAVAL AIR STATION
         EL CENTRO NAS IS EL CENTRO NAVAL AIR STATION
N/A    - NOT AVAILABLE


USA.gov is the U.S. government's official web portal to all federal, state and local government web resources and services.